TimeHST,TemperatureF,Dew PointF,Humidity,Sea Level PressureIn,VisibilityMPH,Wind Direction,Wind SpeedMPH,Gust SpeedMPH,PrecipitationIn,Events,Conditions,WindDirDegrees,DateUTC
12:53 AM,68.0,60.1,76,29.91,10.0,SW,9.2,-,N/A,,Scattered Clouds,230,2013-03-09 10:53:00
1:53 AM,72.0,64.0,76,29.88,10.0,South,12.7,26.5,N/A,,Partly Cloudy,190,2013-03-09 11:53:00
2:53 AM,71.1,62.1,73,29.87,10.0,SSW,11.5,-,N/A,,Clear,210,2013-03-09 12:53:00
3:53 AM,70.0,64.0,81,29.84,10.0,SW,16.1,-,0.00,,Overcast,230,2013-03-09 13:53:00
4:53 AM,70.0,63.0,78,29.84,10.0,WSW,12.7,-,N/A,,Mostly Cloudy,240,2013-03-09 14:53:00
5:53 AM,70.0,64.0,81,29.86,10.0,SW,12.7,-,N/A,,Scattered Clouds,230,2013-03-09 15:53:00
6:53 AM,70.0,62.1,76,29.88,10.0,SW,10.4,-,N/A,,Partly Cloudy,230,2013-03-09 16:53:00
7:01 AM,69.8,62.6,78,29.89,10.0,WSW,11.5,-,N/A,,Scattered Clouds,240,2013-03-09 17:01:00
7:53 AM,73.0,62.1,68,29.90,10.0,SSW,13.8,17.3,N/A,,Scattered Clouds,210,2013-03-09 17:53:00
8:53 AM,75.0,62.1,64,29.91,10.0,SSW,9.2,-,N/A,,Partly Cloudy,210,2013-03-09 18:53:00
9:53 AM,73.9,64.0,71,29.92,10.0,South,10.4,-,0.00,,Overcast,190,2013-03-09 19:53:00
10:53 AM,73.9,66.0,76,29.91,10.0,South,15.0,21.9,0.01,Rain,Light Rain,180,2013-03-09 20:53:00
11:08 AM,71.6,64.4,78,29.92,10.0,SW,8.1,-,0.00,Rain,Light Rain,220,2013-03-09 21:08:00
11:20 AM,73.4,64.4,73,29.92,10.0,South,9.2,-,0.00,,Mostly Cloudy,190,2013-03-09 21:20:00
11:53 AM,75.0,64.0,69,29.91,10.0,WSW,17.3,23.0,0.00,Rain,Light Rain,250,2013-03-09 21:53:00
12:45 PM,66.2,62.6,88,29.91,3.0,South,10.4,-,0.05,Rain,Heavy Rain,190,2013-03-09 22:45:00
12:53 PM,66.9,63.0,87,29.90,5.0,South,10.4,-,0.07,Rain,Light Rain,180,2013-03-09 22:53:00
1:53 PM,73.0,64.9,76,29.87,10.0,WSW,16.1,-,0.00,Rain,Light Rain,240,2013-03-09 23:53:00
2:53 PM,66.9,64.0,90,29.87,7.0,SW,10.4,-,0.01,Rain,Rain,230,2013-03-10 00:53:00
3:53 PM,68.0,63.0,84,29.86,10.0,WSW,16.1,-,0.02,Rain,Light Rain,240,2013-03-10 01:53:00
4:53 PM,68.0,64.0,87,29.87,10.0,SW,11.5,-,0.00,,Mostly Cloudy,220,2013-03-10 02:53:00
5:53 PM,68.0,63.0,84,29.88,10.0,SW,11.5,-,N/A,,Partly Cloudy,230,2013-03-10 03:53:00
6:53 PM,68.0,63.0,84,29.88,10.0,SW,11.5,-,N/A,,Mostly Cloudy,230,2013-03-10 04:53:00
7:53 PM,66.9,63.0,87,29.88,10.0,SW,6.9,-,N/A,,Partly Cloudy,230,2013-03-10 05:53:00
8:34 PM,68.0,62.6,83,29.90,10.0,SSW,3.5,-,N/A,,Partly Cloudy,200,2013-03-10 06:34:00
8:53 PM,68.0,63.0,84,29.90,10.0,SSW,4.6,-,N/A,,Clear,210,2013-03-10 06:53:00
9:33 PM,68.0,62.6,83,29.91,10.0,South,4.6,-,N/A,,Scattered Clouds,190,2013-03-10 07:33:00
9:53 PM,66.9,63.0,87,29.91,10.0,SSW,3.5,-,N/A,,Scattered Clouds,200,2013-03-10 07:53:00
10:53 PM,68.0,63.0,84,29.92,10.0,Calm,Calm,-,N/A,,Overcast,0,2013-03-10 08:53:00
11:53 PM,66.0,63.0,90,29.91,10.0,Calm,Calm,-,N/A,,Overcast,0,2013-03-10 09:53:00